星链-36807(STARLINK-36807)

导读

STARLINK-36807是美国SpaceX公司星链(Starlink)星座的组网卫星,于2026年2月15日发射升空。作为星链全球卫星互联网项目的一员,它运行在近地轨道,通过与地面站协同工作,为偏远地区、海洋航行等传统网络覆盖不足场景提供低延迟、高速率的宽带互联网服务,进一步扩充了星链星座的在轨规模,推动全球网络覆盖能力提升。

基本信息
目录编号:
67810
目录名称:
STARLINK-36807
国际标识:
2026-032P
轨道中心:
EARTH
卫星名称:
星链-36807
卫星全名:
星链-36807(STARLINK-36807)
卫星状态:
在轨 (已飞行210 天)
发射日期:
2026-02-15 UTC
国别 :
美国 (US)
星等 :
--
该卫星已列入 空间交会检测服务 Space Conjunction Data Service (SCDS) ,当前飞行风险评估等级: 无高风险
轨道信息
数据来源 国际轨道数据 AOE轨道数据
星历时间 2026-09-13T02:48:07+0800
14小时前
查看轨道信息
2026-09-10T22:00:00+0800
2天前
查看轨道信息
半长轴 6843.656km 6843.77km
偏心率 0.0001885 0.0001885
轨道倾角 97.285° 97.286°
近地点辐角 94.492° 89.694°
升交点赤经 82.315° 80.146°
平近点角 265.654° 12.990°
近地点 464.228km 464.342km
远地点 466.81km 466.924km
周期 93.906分钟 93.908分钟
每日圈数 15.334533 15.33415
详细信息
固有亮度:
5
最大亮度:
2.5
卫星平台:
Starlink V1.0
覆盖范围:
全球
运营商:
太空探索技术公司
运营商所在国:
美国
制造商(研发单位):
太空探索技术公司
制造商所在国:
美国
使用方式:
暂无
卫星简介
Starlink 计划是 SpaceX 推出的全球卫星互联网项目,通过发射低轨道卫星,为全球尤其是偏远地区提供高速、低延迟的互联网服务。自 2019 年起,Starlink 已部署数千颗卫星,旨在缩小全球数字鸿沟,推动互联网普及。该项目还为军事、航空等行业提供通信支持,带来广泛经济效益。
2D轨道图
3D轨道图
轨道高度分析图
轨道倾角分析图
轨道综合分析图
查看轨道综合分析图
与全量物体交会距离演化趋势
与全量物体交会风险概率演化趋势